Voltar ao catálogo

STARLINK-34580

AtivoComunicaçõesSSO
NORAD 65808·PAYLOAD·🇺🇸 United States

Lançado Sep 26, 2025 de Vandenberg Space Force Base

Loading…

Próximas Passagens (próximas 24 horas)

TLE

AtualizadoSource: CelesTrak SupGP

Época: Sep 15, 2026, 03:23 UTC

1 65808C 25218T   26258.14145833 -.00006508  00000+0 -20198-3 0  2588
2 65808  97.2848 115.6099 0001752  93.1707 269.2947 15.33449484    15

Acompanhe STARLINK-34580 em tempo real com AllMySat

Download on the App Store